This demonstration page uses our WeatherBlox Daily Observations layout. Learn more.

Left ArrowRight Arrow

39.51506, -84.39828

Hourly Observations for October 6, 2022

Temp ( °F °C ) Dew Point ( °F °C ) Humidity (%) Winds ( mph kmh ) Pressure ( in mb ) Visibility ( mi km ) Precip ( " mm )
12:15 am 00:15 Clear 46 7.7 N/A N/A Calm 30.10 1019 10 16 0.00 0.00
12:35 am 00:35 Clear 46 7.5 N/A N/A Calm 30.10 1019 10 16 0.00 0.00
12:55 am 00:55 Clear 45 7.1 N/A N/A Calm 30.10 1019 10 16 0.00 0.00
1:15 am 01:15 Clear 44 6.5 N/A N/A Calm 30.10 1019 7 11 0.00 0.00
1:35 am 01:35 Hazy 44 6.5 N/A N/A Calm 30.10 1019 5 8 0.00 0.00
1:55 am 01:55 Clear 44 6.6 N/A N/A Calm 30.10 1019 10 16 0.00 0.00
2:15 am 02:15 Clear with Mist and Fog 44 6.4 N/A N/A Calm 30.11 1020 2 3 0.00 0.00
2:35 am 02:35 Clear 44 6.4 N/A N/A Calm 30.11 1020 10 16 0.00 0.00
2:55 am 02:55 Clear with Mist and Fog 43 6.2 N/A N/A Calm 30.11 1020 4 6 0.00 0.00
3:15 am 03:15 Clear 44 6.5 N/A N/A Calm 30.11 1020 10 16 0.00 0.00
3:35 am 03:35 Clear 44 6.7 N/A N/A Calm 30.10 1019 10 16 0.00 0.00
3:55 am 03:55 Clear 44 6.9 N/A N/A Calm 30.10 1019 10 16 0.00 0.00
4:15 am 04:15 Clear 44 6.7 N/A N/A Calm 30.09 1019 10 16 0.00 0.00
4:35 am 04:35 Clear 45 7.3 N/A N/A Calm 30.09 1019 10 16 0.00 0.00
4:55 am 04:55 Clear 45 7.1 N/A N/A Calm 30.09 1019 10 16 0.00 0.00
5:15 am 05:15 Clear 46 7.5 N/A N/A Calm 30.09 1019 10 16 0.00 0.00
5:35 am 05:35 Clear 46 7.7 N/A N/A Calm 30.09 1019 10 16 0.00 0.00
5:55 am 05:55 Clear 46 7.9 N/A N/A Calm 30.09 1019 10 16 0.00 0.00
6:15 am 06:15 Clear 46 8 N/A N/A Calm 30.09 1019 10 16 0.00 0.00
6:35 am 06:35 Clear 46 7.9 N/A N/A Calm 30.09 1019 10 16 0.00 0.00
6:55 am 06:55 Clear 47 8.4 N/A N/A Calm 30.09 1019 10 16 0.00 0.00
7:15 am 07:15 Clear 47 8.6 N/A N/A Calm 30.08 1019 10 16 0.00 0.00
7:35 am 07:35 Clear 47 8.6 N/A N/A Calm 30.09 1019 10 16 0.00 0.00
7:55 am 07:55 Sunny 47 8.5 N/A N/A Calm 30.09 1019 10 16 0.00 0.00
8:15 am 08:15 Sunny 46 8 N/A N/A Calm 30.10 1019 10 16 0.00 0.00
8:35 am 08:35 Partly Cloudy 46 7.9 46 8 N/A Calm 30.10 1019 10 16 0.00 0.00
8:55 am 08:55 Partly Cloudy 49 9.2 48 9.1 99 99 Calm 30.10 1019 10 16 0.00 0.00
9:15 am 09:15 Sunny 50 10.2 49 9.6 96 96 SW 3 6 30.12 1020 10 16 0.00 0.00
9:35 am 09:35 Sunny 52 11 50 10 94 94 Calm 30.12 1020 10 16 0.00 0.00
9:55 am 09:55 Sunny 55 12.5 49 9.7 83 83 S 3 6 30.10 1019 10 16 0.00 0.00
10:15 am 10:15 Sunny 57 13.8 47 8.5 70 70 S 5 7 30.10 1019 10 16 0.00 0.00
10:35 am 10:35 Sunny 58 14.4 47 8.6 68 68 SSW 7 11 30.11 1020 10 16 0.00 0.00
10:55 am 10:55 Sunny 60 15.7 47 8.1 61 61 SSW 9 15 30.10 1019 10 16 0.00 0.00
11:15 am 11:15 Sunny 61 16.3 46 7.5 56 56 S 7 11 30.09 1019 10 16 0.00 0.00
11:35 am 11:35 Partly Cloudy 62 16.5 45 7.2 54 54 SSW 7 11 30.09 1019 10 16 0.00 0.00
11:55 am 11:55 Cloudy 62 16.9 45 7.2 53 53 Calm 30.07 1018 10 16 0.00 0.00
12:15 pm 12:15 Cloudy 63 17.3 46 7.7 53 53 Calm 30.06 1018 10 16 0.00 0.00
12:35 pm 12:35 Mostly Cloudy 65 18.4 46 7.8 50 50 S 5 7 30.06 1018 10 16 0.00 0.00
12:55 pm 12:55 Mostly Cloudy 68 19.8 46 7.8 46 46 SSE 6 9 30.06 1018 10 16 0.00 0.00
1:15 pm 13:15 Mostly Cloudy 71 21.4 44 6.8 39 39 S 6 9 30.05 1018 10 16 0.00 0.00
1:35 pm 13:35 Mostly Cloudy 71 21.7 44 6.8 38 38 S 9 15 30.04 1017 10 16 0.00 0.00
1:55 pm 13:55 Sunny 73 23 42 5.6 32 32 S 8 13 30.03 1017 10 16 0.00 0.00
2:15 pm 14:15 Sunny 74 23.3 41 5.1 31 31 S 7 11 30.02 1017 10 16 0.00 0.00
2:35 pm 14:35 Sunny 76 24.4 41 5.1 29 29 SSW 10 17 30.02 1016 10 16 0.00 0.00
2:55 pm 14:55 Partly Cloudy 75 23.8 40 4.7 29 29 SSW 13 20 30.01 1016 10 16 0.00 0.00
3:15 pm 15:15 Partly Cloudy 76 24.2 43 6 31 31 SW 12 19 30.00 1016 10 16 0.00 0.00
3:35 pm 15:35 Mostly Cloudy 73 22.9 43 6.3 34 34 S 10 17 30.00 1016 10 16 0.00 0.00
3:55 pm 15:55 Partly Cloudy 73 23 42 5.7 33 33 SSW 10 17 30.01 1016 10 16 0.00 0.00
4:15 pm 16:15 Partly Cloudy 74 23.4 44 6.8 34 34 SW 10 17 30.01 1016 10 16 0.00 0.00
4:35 pm 16:35 Mostly Cloudy 74 23.2 42 5.8 32 32 SW 13 20 30.01 1016 10 16 0.00 0.00
4:55 pm 16:55 Partly Cloudy 74 23.5 44 6.6 34 34 SSW 13 20 30.01 1016 10 16 0.00 0.00
5:15 pm 17:15 Partly Cloudy 75 23.7 43 6.3 33 33 S 12 19 30.01 1016 10 16 0.00 0.00
5:35 pm 17:35 Partly Cloudy 74 23.2 44 6.5 34 34 SSW 9 15 30.01 1016 10 16 0.00 0.00
5:55 pm 17:55 Partly Cloudy 73 22.7 44 6.6 35 35 S 8 13 30.01 1016 10 16 0.00 0.00
6:15 pm 18:15 Mostly Cloudy 71 21.9 45 7 38 38 S 9 15 30.01 1016 10 16 0.00 0.00
6:35 pm 18:35 Cloudy 70 21.1 46 7.7 42 42 SW 6 9 30.01 1016 10 16 0.00 0.00
6:55 pm 18:55 Mostly Cloudy 65 18.2 50 10.1 59 59 WSW 3 6 30.03 1017 10 16 0.00 0.00
7:15 pm 19:15 Mostly Cloudy 61 16.2 52 11.2 72 72 Calm 30.04 1017 10 16 0.00 0.00
7:35 pm 19:35 Cloudy 61 16.1 53 11.9 76 76 Calm 30.04 1017 10 16 0.00 0.00
7:55 pm 19:55 Mostly Cloudy 59 14.8 54 12.2 84 84 Calm 30.04 1017 10 16 0.00 0.00
8:15 pm 20:15 Mostly Cloudy 58 14.7 54 12.4 86 86 Calm 30.05 1018 10 16 0.00 0.00
8:35 pm 20:35 Mostly Cloudy 56 13.2 54 12.3 94 94 Calm 30.05 1018 10 16 0.00 0.00
8:55 pm 20:55 Mostly Cloudy 57 13.8 54 12.4 91 91 Calm 30.05 1018 10 16 0.00 0.00
9:15 pm 21:15 Partly Cloudy 56 13.4 54 12.2 92 92 Calm 30.05 1018 10 16 0.00 0.00
9:35 pm 21:35 Clear 55 12.7 54 12.3 97 97 Calm 30.05 1018 10 16 0.00 0.00
9:55 pm 21:55 Partly Cloudy 54 12.1 54 12 99 99 Calm 30.06 1018 10 16 0.00 0.00
10:15 pm 22:15 Mostly Cloudy 54 12.4 54 12 97 97 Calm 30.06 1018 10 16 0.00 0.00
10:35 pm 22:35 Partly Cloudy 53 11.9 52 11 94 94 Calm 30.06 1018 10 16 0.00 0.00
10:55 pm 22:55 Clear 52 10.9 52 11 N/A Calm 30.07 1018 10 16 0.00 0.00
11:15 pm 23:15 Clear 51 10.5 N/A N/A Calm 30.07 1018 10 16 0.00 0.00
11:35 pm 23:35 Clear 51 10.5 N/A N/A Calm 30.07 1018 10 16 0.00 0.00
11:55 pm 23:55 Hazy 49 9.7 N/A N/A W 3 6 30.07 1018 7 11 0.00 0.00

Powered by AerisWeather